Milwaukee, WI

12:15 AM CST on February 22, 2017 (GMT -0600)
Timmerman

Weather History for KMWC - May, 2013

Change the Weather History Date:

Tuesday, May 21, 2013

  Actual Average Record
Temperature  
Mean Temperature 70 °F -  
Max Temperature 78 °F 72 °F 89 °F (1970)
Min Temperature 60 °F 48 °F 35 °F (1955)
Cooling Degree Days 5    
Growing Degree Days 20 (Base 50)    
Moisture  
Dew Point 58 °F    
Average Humidity 73    
Maximum Humidity 88    
Minimum Humidity 42    
Precipitation  
Precipitation 0.12 in - - ()
Sea Level Pressure  
Sea Level Pressure 29.67 in    
Wind  
Wind Speed 10 mph (SSW)    
Max Wind Speed 21 mph    
Max Gust Speed 30 mph    
Visibility 10 miles    
Events Rain    
Averages and records for this station are not official NWS values.
T = Trace of Precipitation, MM = Missing Value Source: NWS Daily Summary

Daily Weather History Graph

Daily Weather History Graph

Search for Another Location

Airport or City:

Trip Planner

Search our weather history database for the weather conditions in past years. The results will help you decide how hot, cold, wet, or windy it might be!

Date:

Astronomy

May. 21, 2013 Rise Set
Actual Time 5:22 AM CDT 8:15 PM CDT
Civil Twilight 4:49 AM CDT 8:48 PM CDT
Nautical Twilight 4:06 AM CDT 9:31 PM CDT
Astronomical Twilight 3:17 AM CDT 10:21 PM CDT
Moon 4:23 PM CDT (5/21) 2:56 AM CDT (5/21)
Length of Visible Light 15h 59m
Length of Day
14h 52m
Waxing Gibbous, 84% of the Moon is Illuminated
May 21
Waxing Gibbous
May 24
Full
May 31
Last Quarter
Jun 8
New
Jun 16
First Quarter

Hourly Weather History & Observations

Time (CDT) Temp. Dew Point Humidity Pressure Visibility Wind Dir Wind Speed Gust Speed Precip Events Conditions
12:35 AM 66.2 °F 60.8 °F 83% 29.72 in 7.0 mi South 17.3 mph 20.7 mph 0.09 in Rain Rain
12:55 AM 64.4 °F 60.8 °F 88% 29.71 in 10.0 mi South 11.5 mph 20.7 mph 0.11 in Rain Light Rain
1:15 AM 64.4 °F 60.8 °F 88% 29.69 in 10.0 mi SW 5.8 mph - 0.01 in Rain Rain
1:35 AM 64.4 °F 60.8 °F 88% 29.67 in 10.0 mi SSE 4.6 mph - 0.01 in Rain Light Rain
1:55 AM 64.4 °F 60.8 °F 88% 29.67 in 10.0 mi SSE 6.9 mph - 0.01 in   Overcast
2:15 AM 64.4 °F 60.8 °F 88% 29.67 in 10.0 mi SSE 8.1 mph - N/A   Scattered Clouds
2:35 AM 64.4 °F 60.8 °F 88% 29.67 in 10.0 mi SSE 6.9 mph - N/A   Mostly Cloudy
2:55 AM 64.4 °F 60.8 °F 88% 29.66 in 10.0 mi SSE 8.1 mph - N/A   Mostly Cloudy
3:15 AM 64.4 °F 60.8 °F 88% 29.64 in 10.0 mi South 10.4 mph - N/A   Scattered Clouds
3:35 AM 64.4 °F 60.8 °F 88% 29.63 in 10.0 mi South 10.4 mph - N/A   Clear
3:55 AM 64.4 °F 59.0 °F 83% 29.65 in 10.0 mi South 11.5 mph 17.3 mph N/A   Clear
4:15 AM 64.4 °F 59.0 °F 83% 29.65 in 10.0 mi SSW 10.4 mph - N/A   Clear
4:35 AM 62.6 °F 59.0 °F 88% 29.65 in 10.0 mi SSW 10.4 mph 17.3 mph N/A   Clear
4:55 AM 62.6 °F 59.0 °F 88% 29.65 in 10.0 mi SSW 8.1 mph - N/A   Clear
5:15 AM 62.6 °F 59.0 °F 88% 29.66 in 10.0 mi SSW 10.4 mph - N/A   Scattered Clouds
5:35 AM 62.6 °F 59.0 °F 88% 29.67 in 10.0 mi SSW 10.4 mph - N/A   Scattered Clouds
5:55 AM 62.6 °F 59.0 °F 88% 29.68 in 10.0 mi SSW 9.2 mph - N/A   Scattered Clouds
6:15 AM 62.6 °F 59.0 °F 88% 29.68 in 10.0 mi South 6.9 mph - N/A   Overcast
6:35 AM 62.6 °F 59.0 °F 88% 29.68 in 10.0 mi SSW 8.1 mph - N/A   Overcast
6:45 AM 64.4 °F 59.0 °F 83% 29.68 in 10.0 mi SW 6.9 mph - N/A   Overcast
6:55 AM 62.6 °F 59.0 °F 88% 29.68 in 10.0 mi SSW 6.9 mph - N/A   Overcast
7:45 AM 64.4 °F 59.0 °F 83% 29.69 in 10.0 mi SSW 8.1 mph - N/A   Mostly Cloudy
8:45 AM 66.2 °F 59.0 °F 78% 29.69 in 10.0 mi SW 11.5 mph 20.7 mph N/A   Scattered Clouds
9:45 AM 69.8 °F 60.8 °F 73% 29.69 in 10.0 mi SSW 11.5 mph - N/A   Scattered Clouds
10:45 AM 71.6 °F 60.8 °F 69% 29.68 in 10.0 mi South 11.5 mph - N/A   Scattered Clouds
11:45 AM 71.6 °F 60.8 °F 69% 29.69 in 10.0 mi SSW 17.3 mph - N/A   Mostly Cloudy
12:45 PM 75.2 °F 59.0 °F 57% 29.66 in 10.0 mi South 17.3 mph - N/A   Clear
1:45 PM 78.8 °F 57.2 °F 47% 29.65 in 10.0 mi South 18.4 mph 26.5 mph N/A   Mostly Cloudy
2:45 PM 77.0 °F 55.4 °F 47% 29.65 in 10.0 mi SW 16.1 mph 28.8 mph N/A   Mostly Cloudy
3:45 PM 78.8 °F 55.4 °F 44% 29.65 in 10.0 mi WSW 20.7 mph 29.9 mph N/A   Mostly Cloudy
4:45 PM 77.0 °F 55.4 °F 47% 29.65 in 10.0 mi SW 12.7 mph 29.9 mph N/A   Mostly Cloudy
5:45 PM 78.8 °F 53.6 °F 42% 29.65 in 10.0 mi WSW 12.7 mph 19.6 mph N/A   Scattered Clouds
6:45 PM 77.0 °F 53.6 °F 44% 29.64 in 10.0 mi SW 10.4 mph 18.4 mph N/A   Scattered Clouds
7:45 PM 75.2 °F 53.6 °F 47% 29.66 in 10.0 mi West 6.9 mph 11.5 mph N/A   Scattered Clouds
8:45 PM 71.6 °F 53.6 °F 53% 29.69 in 10.0 mi West 4.6 mph - N/A   Clear
9:15 PM 69.8 °F 53.6 °F 56% 29.70 in 10.0 mi Calm Calm - N/A   Scattered Clouds
9:35 PM 68.0 °F 53.6 °F 60% 29.70 in 10.0 mi Calm Calm - N/A   Scattered Clouds
9:55 PM 68.0 °F 53.6 °F 60% 29.71 in 10.0 mi Calm Calm - N/A   Clear
10:15 PM 66.2 °F 53.6 °F 64% 29.71 in 10.0 mi Calm Calm - N/A   Scattered Clouds
10:35 PM 66.2 °F 53.6 °F 64% 29.71 in 10.0 mi Calm Calm - N/A   Scattered Clouds
10:55 PM 66.2 °F 53.6 °F 64% 29.69 in 10.0 mi Calm Calm - N/A   Clear
11:15 PM 64.4 °F 53.6 °F 68% 29.69 in 10.0 mi Calm Calm - N/A   Clear
11:35 PM 62.6 °F 53.6 °F 72% 29.69 in 10.0 mi Calm Calm - N/A   Clear
11:55 PM 60.8 °F 53.6 °F 77% 29.69 in 10.0 mi Calm Calm - N/A   Clear